Location: ???? ?????
(30.0052°N, 31.2891°E)
Time: 18:27:45
(UTC+00:00)

Iridium 16 - Pass Details

Date: 02 February 2023
Orbit: 766 x 768 km, 86.4° (Epoch: 19 March)

Event Time Altitude Azimuth Distance (km) Brightness Sun altitude
Rises 01:47:32 0° 134° (SE) 3,222 9.2 -38.6°
Reaches altitude 10° 01:51:09 10° 108° (ESE) 2,301 8.6 -37.8°
Maximum altitude 01:53:27 13° 81° (E) 2,095 8.4 -37.3°
Drops below altitude 10° 01:55:45 10° 54° (NE) 2,307 8.5 -36.8°
Sets 01:59:23 0° 28° (NNE) 3,239 9.1 -36.0°
